User: anonymous   Login
Location: Bonny Doon Airfield
(37.0704°N, 122.1252°W)
Time: 13:29:22
(UTC-07:00)
Language:

BREEZE M DEB (TANK) - Orbit

View from above orbital plane
View from above orbital plane
View from above satellite
View from above satellite

Ground track
Ground track

The orbit data is extracted from the following two-line orbital elements,

1 33437U 08057B   16205.30736334 +.00000346 +00000-0 +11917-3 0  9998
2 33437 049.5653 167.5020 4990493 196.5557 138.3562 05.59580486155426
Epoch (UTC): 23 July 2016 07:22:36
Eccentricity: 0.4990493
inclination: 49.5653°
perigee height: 335 km
apogee height: 13711 km
right ascension of ascending node: 167.5020°
argument of perigee: 196.5557°
revolutions per day: 5.59580486
mean anomaly at epoch: 138.3562°
orbit number at epoch: 15542

The dashed part of the orbit path shows where the satellite is in the earth's shadow,  

DLR